Location: Unspecified
(36.5600°N, 136.6600°E)
Time: 04:40:24
(UTC+09:00)

BlueWalker 3 - Pass Details

Date: 23 June 2024
Orbit: 480 x 491 km, 53.2° (Epoch: 24 July)

Event Time Altitude Azimuth Distance (km) Brightness Sun altitude
Rises 20:47:50 0° 279° (W) 2,538 6.4 -15.4°
Reaches altitude 10° 20:51:08 10° 311° (NW) 1,658 5.9 -15.9°
Maximum altitude 20:52:45 12° 336° (NNW) 1,517 5.4 -16.1°
Drops below altitude 10° 20:54:22 10° 2° (N) 1,658 5.2 -16.3°
Sets 20:57:41 0° 34° (NNE) 2,538 5.7 -16.8°
